Location: Innsbruck
(47.2657°N, 11.3914°E)
Time: 10:16:33
(UTC+01:00)

BEESAT 3 - Pass Details

Date: 15 December 2021
Orbit: 472 x 512 km, 64.9° (Epoch: 22 January)

Event Time Altitude Azimuth Distance (km) Brightness Sun altitude
Rises 18:36:10 0° 272° (W) 2,577 ? -21.2°
Reaches altitude 10° 18:39:20 10° 301° (WNW) 1,709 ? -21.8°
Maximum altitude 18:41:12 13° 331° (NNW) 1,530 ? -22.1°
Enters shadow 18:42:24 12° 350° (N) 1,615 ? -22.3°
